Location: Asheville, NC
(35.6000°N, 82.5500°W)
Time: 03:18:17
(UTC-04:00)

Vanguard 1 Rocket - Pass Details

Date: 17 February 2018
Orbit: 652 x 4225 km, 34.3° (Epoch: 24 May)

Event Time Altitude Azimuth Distance (km) Brightness Sun altitude
Rises 22:01:01 0° 216° (SW) 6,161 11.8 -46.1°
Reaches altitude 10° 22:04:38 10° 211° (SSW) 5,550 11.4 -46.8°
Enters shadow 22:13:01 35° 190° (S) 4,589 10.7 -48.3°
Maximum altitude 22:22:34 50° 141° (SE) 4,495 - -50.1°
Drops below altitude 10° 22:46:55 10° 75° (ENE) 7,334 - -54.3°
Exits shadow 22:51:05 - 72° (ENE) 7,955 12.0 -55.0°
Sets 22:52:35 0° 72° (ENE) 8,179 12.1 -55.2°
